Sauk Centre, MN

12:13 AM CDT on October 23, 2019 (GMT -0500)
Sauk Centre

Weather History for KD39 - August, 2019

Change the Weather History Date:

Thursday, August 22, 2019

  Actual Average (KGHW) Record (KGHW)
Temperature  
Mean Temperature 59 °F -  
Max Temperature 71 °F 77 °F 93 °F (1949)
Min Temperature 48 °F 56 °F 33 °F (2002)
Degree Days  
Heating Degree Days 6    
Growing Degree Days 9 (Base 50)    
Moisture  
Dew Point 50 °F    
Average Humidity 74    
Maximum Humidity 99    
Minimum Humidity 45    
Precipitation  
Precipitation 0.00 in - - ()
Sea Level Pressure  
Sea Level Pressure 30.11 in    
Wind  
Wind Speed 2 mph ()    
Max Wind Speed 9 mph    
Max Gust Speed -    
Visibility 10.0 miles    
Events      
Averages and records for this station are not official NWS values.
T = Trace of Precipitation, MM = Missing Value Source: Averaged Metar Reports

Daily Weather History Graph

Daily Weather History Graph

Search for Another Location

Airport or City:

Astronomy

Aug. 22, 2019 Rise Set
Actual Time 6:28 AM CDT 8:16 PM CDT
Civil Twilight 5:56 AM CDT 8:47 PM CDT
Nautical Twilight 5:17 AM CDT 9:26 PM CDT
Astronomical Twilight 4:35 AM CDT 10:08 PM CDT
Moon 11:45 PM CDT (8/22) 1:24 PM CDT (8/22)
Length of Visible Light 14h 51m
Length of Day
13h 47m
Waning Gibbous, 59% of the Moon is Illuminated
Aug 22
Waning Gibbous
Aug 23
Last Quarter
Aug 30
New
Sep 5
First Quarter
Sep 13
Full

Hourly Weather History & Observations

Time (CDT) Temp. Dew Point Humidity Pressure Visibility Wind Dir Wind Speed Gust Speed Precip Events Conditions
12:16 AM 53.6 °F 51.1 °F 91% 30.10 in 10.0 mi Calm Calm - N/A   Clear
12:35 AM 54.5 °F 51.6 °F 90% 30.10 in 10.0 mi Calm Calm - N/A   Clear
12:36 AM 54.5 °F 51.4 °F 89% 30.10 in 10.0 mi Calm Calm - N/A   Clear
12:55 AM 53.1 °F 51.1 °F 93% 30.10 in 10.0 mi Calm Calm - N/A   Clear
12:59 AM 52.9 °F 50.9 °F 93% 30.10 in 10.0 mi Calm Calm - N/A   Clear
1:17 AM 51.4 °F 49.6 °F 94% 30.10 in 10.0 mi Calm Calm - N/A   Clear
1:35 AM 52.0 °F 50.2 °F 94% 30.10 in 10.0 mi Calm Calm - N/A   Clear
1:55 AM 50.5 °F 49.6 °F 97% 30.10 in 10.0 mi Calm Calm - N/A   Clear
1:56 AM 50.5 °F 49.6 °F 97% 30.10 in 10.0 mi Calm Calm - N/A   Clear
2:15 AM 50.7 °F 49.5 °F 95% 30.10 in 10.0 mi Calm Calm - N/A   Clear
2:35 AM 50.2 °F 49.3 °F 97% 30.10 in 10.0 mi Calm Calm - N/A   Clear
2:39 AM 50.0 °F 49.1 °F 97% 30.10 in 10.0 mi Calm Calm - N/A   Clear
2:57 AM 49.6 °F 49.1 °F 98% 30.10 in 10.0 mi Calm Calm - N/A   Clear
3:18 AM 49.6 °F 48.7 °F 97% 30.09 in 10.0 mi Calm Calm - N/A   Clear
3:37 AM 49.1 °F 48.2 °F 97% 30.09 in 10.0 mi Calm Calm - N/A   Clear
3:56 AM 48.9 °F 48.2 °F 97% 30.08 in 10.0 mi Calm Calm - N/A   Clear
4:15 AM 48.2 °F 47.7 °F 98% 30.09 in 10.0 mi Calm Calm - N/A   Clear
4:16 AM 48.2 °F 47.7 °F 98% 30.09 in 10.0 mi Calm Calm - N/A   Clear
4:35 AM 48.2 °F 47.8 °F 99% 30.08 in 10.0 mi Calm Calm - N/A   Clear
4:36 AM 48.2 °F 47.8 °F 99% 30.08 in 10.0 mi Calm Calm - N/A   Clear
4:55 AM 49.1 °F 48.4 °F 97% 30.08 in 10.0 mi Calm Calm - N/A   Scattered Clouds
5:17 AM 49.6 °F 49.1 °F 98% 30.09 in 10.0 mi Calm Calm - N/A   Overcast
5:36 AM 50.5 °F 49.5 °F 96% 30.09 in 10.0 mi North 3.5 mph - N/A   Overcast
5:55 AM 51.3 °F 50.4 °F 97% 30.09 in 10.0 mi North 3.5 mph - N/A   Overcast
5:56 AM 51.3 °F 50.4 °F 97% 30.09 in 10.0 mi North 3.5 mph - N/A   Overcast
6:15 AM 52.2 °F 51.3 °F 97% 30.09 in 10.0 mi Calm Calm - N/A   Overcast
6:35 AM 51.1 °F 50.2 °F 97% 30.10 in 10.0 mi Calm Calm - N/A   Overcast
6:58 AM 51.1 °F 50.4 °F 97% 30.10 in 10.0 mi Calm Calm - N/A   Overcast
7:17 AM 51.8 °F 50.9 °F 97% 30.11 in 10.0 mi Calm Calm - N/A   Overcast
7:36 AM 52.5 °F 51.8 °F 97% 30.11 in 10.0 mi Calm Calm - N/A   Overcast
7:55 AM 53.6 °F 52.7 °F 97% 30.11 in 10.0 mi Calm Calm - N/A   Overcast
7:56 AM 53.6 °F 52.7 °F 97% 30.11 in 10.0 mi Calm Calm - N/A   Overcast
8:15 AM 54.5 °F 53.2 °F 96% 30.12 in 10.0 mi Calm Calm - N/A   Overcast
8:16 AM 54.5 °F 53.2 °F 96% 30.12 in 7.0 mi Calm Calm - N/A   Overcast
8:37 AM 55.4 °F 53.4 °F 93% 30.12 in 10.0 mi Calm Calm - N/A   Overcast
8:59 AM 57.2 °F 54.1 °F 89% 30.13 in 10.0 mi Calm Calm - N/A   Overcast
9:16 AM 58.3 °F 54.0 °F 86% 30.12 in 10.0 mi Calm Calm - N/A   Overcast
9:35 AM 59.5 °F 53.4 °F 80% 30.12 in 10.0 mi Calm Calm - N/A   Overcast
9:36 AM 59.7 °F 53.4 °F 80% 30.12 in 10.0 mi Calm Calm - N/A   Overcast
9:56 AM 61.0 °F 53.6 °F 77% 30.13 in 10.0 mi ESE 3.5 mph - N/A   Overcast
10:15 AM 61.7 °F 53.8 °F 75% 30.13 in 10.0 mi Calm Calm - N/A   Overcast
10:19 AM 61.9 °F 54.5 °F 77% 30.12 in 10.0 mi East 3.5 mph - N/A   Overcast
10:38 AM 63.9 °F 53.2 °F 68% 30.13 in 10.0 mi East 3.5 mph - N/A   Overcast
10:56 AM 64.4 °F 53.8 °F 68% 30.13 in 10.0 mi Calm Calm - N/A   Scattered Clouds
11:16 AM 64.9 °F 51.1 °F 61% 30.13 in 10.0 mi East 3.5 mph - N/A   Clear
11:35 AM 65.7 °F 47.3 °F 51% 30.13 in 10.0 mi NE 3.5 mph - N/A   Clear
11:36 AM 65.7 °F 47.5 °F 52% 30.13 in 10.0 mi Calm Calm - N/A   Clear
11:59 AM 66.7 °F 48.4 °F 52% 30.13 in 10.0 mi Calm Calm - N/A   Clear
12:16 PM 67.3 °F 48.9 °F 52% 30.14 in 10.0 mi Calm Calm - N/A   Clear
12:36 PM 67.1 °F 49.6 °F 53% 30.13 in 10.0 mi NNW 5.8 mph - N/A   Scattered Clouds
12:55 PM 67.5 °F 49.3 °F 52% 30.12 in 10.0 mi Calm Calm - N/A   Mostly Cloudy
1:15 PM 68.0 °F 49.6 °F 52% 30.11 in 10.0 mi ENE 4.6 mph - N/A   Mostly Cloudy
1:16 PM 68.0 °F 49.5 °F 51% 30.11 in 10.0 mi ENE 3.5 mph - N/A   Mostly Cloudy
1:39 PM 68.0 °F 48.9 °F 50% 30.11 in 10.0 mi Calm Calm - N/A   Scattered Clouds
1:56 PM 68.5 °F 48.0 °F 48% 30.11 in 10.0 mi Calm Calm - N/A   Scattered Clouds
2:15 PM 67.1 °F 46.8 °F 48% 30.11 in 10.0 mi Calm Calm - N/A   Scattered Clouds
2:35 PM 69.3 °F 47.3 °F 45% 30.11 in 10.0 mi NNW 5.8 mph - N/A   Mostly Cloudy
2:36 PM 69.1 °F 46.9 °F 45% 30.11 in 10.0 mi NNW 3.5 mph - N/A   Mostly Cloudy
2:55 PM 68.9 °F 49.1 °F 49% 30.11 in 10.0 mi NE 3.5 mph - N/A   Mostly Cloudy
2:56 PM 69.3 °F 48.9 °F 48% 30.11 in 10.0 mi Calm Calm - N/A   Scattered Clouds
3:19 PM 69.8 °F 49.3 °F 48% 30.11 in 10.0 mi ENE 6.9 mph - N/A   Mostly Cloudy
3:36 PM 68.2 °F 48.6 °F 49% 30.11 in 10.0 mi NE 5.8 mph - N/A   Mostly Cloudy
3:55 PM 70.0 °F 48.6 °F 46% 30.11 in 10.0 mi North 3.5 mph - N/A   Scattered Clouds
3:56 PM 70.0 °F 48.4 °F 46% 30.11 in 10.0 mi North 3.5 mph - N/A   Scattered Clouds
4:15 PM 70.0 °F 49.6 °F 48% 30.10 in 10.0 mi ENE 9.2 mph - N/A   Mostly Cloudy
4:16 PM 69.6 °F 49.1 °F 48% 30.10 in 10.0 mi ENE 9.2 mph - N/A   Mostly Cloudy
4:38 PM 68.0 °F 48.2 °F 49% 30.10 in 10.0 mi East 3.5 mph - N/A   Mostly Cloudy
4:56 PM 69.8 °F 49.8 °F 49% 30.09 in 10.0 mi ENE 9.2 mph - N/A   Scattered Clouds
5:15 PM 70.0 °F 49.5 °F 48% 30.09 in 10.0 mi ENE 8.1 mph - N/A   Mostly Cloudy
5:16 PM 70.2 °F 50.2 °F 49% 30.09 in 10.0 mi ENE 9.2 mph - N/A   Mostly Cloudy
5:35 PM 69.1 °F 49.8 °F 50% 30.09 in 10.0 mi ENE 5.8 mph - N/A   Scattered Clouds
5:58 PM 69.6 °F 50.2 °F 50% 30.10 in 10.0 mi North 5.8 mph - N/A   Clear
6:18 PM 68.9 °F 47.3 °F 46% 30.09 in 10.0 mi East 6.9 mph - N/A   Clear
6:35 PM 68.2 °F 48.2 °F 49% 30.09 in 10.0 mi East 6.9 mph - N/A   Clear
6:55 PM 68.2 °F 49.1 °F 50% 30.09 in 10.0 mi East 5.8 mph - N/A   Clear
6:56 PM 68.2 °F 49.1 °F 50% 30.09 in 10.0 mi East 5.8 mph - N/A   Clear
7:15 PM 67.1 °F 49.1 °F 52% 30.10 in 10.0 mi ENE 5.8 mph - N/A   Clear
7:16 PM 67.1 °F 49.1 °F 52% 30.10 in 10.0 mi East 5.8 mph - N/A   Clear
7:39 PM 65.8 °F 50.0 °F 57% 30.10 in 10.0 mi East 3.5 mph - N/A   Clear
7:56 PM 64.8 °F 51.6 °F 62% 30.10 in 10.0 mi East 4.6 mph - N/A   Clear
8:15 PM 63.1 °F 50.9 °F 64% 30.11 in 10.0 mi East 3.5 mph - N/A   Clear
8:16 PM 63.1 °F 50.9 °F 64% 30.11 in 10.0 mi East 3.5 mph - N/A   Clear
8:35 PM 61.2 °F 51.4 °F 70% 30.11 in 10.0 mi East 4.6 mph - N/A   Clear
8:36 PM 61.2 °F 51.6 °F 71% 30.11 in 10.0 mi East 4.6 mph - N/A   Clear
8:55 PM 60.3 °F 51.8 °F 74% 30.12 in 10.0 mi East 5.8 mph - N/A   Clear
9:19 PM 58.6 °F 52.0 °F 79% 30.13 in 10.0 mi East 5.8 mph - N/A   Clear
9:36 PM 58.3 °F 52.0 °F 80% 30.13 in 10.0 mi East 4.6 mph - N/A   Clear
9:55 PM 58.5 °F 52.3 °F 80% 30.13 in 10.0 mi East 6.9 mph - N/A   Clear
9:56 PM 58.5 °F 52.3 °F 80% 30.13 in 10.0 mi East 6.9 mph - N/A   Clear
10:15 PM 58.3 °F 51.8 °F 79% 30.14 in 10.0 mi East 5.8 mph - N/A   Clear
10:16 PM 58.3 °F 51.8 °F 79% 30.14 in 10.0 mi East 5.8 mph - N/A   Clear
10:35 PM 57.0 °F 51.6 °F 82% 30.14 in 10.0 mi East 5.8 mph - N/A   Clear
10:58 PM 56.3 °F 51.1 °F 83% 30.14 in 10.0 mi East 5.8 mph - N/A   Clear
11:16 PM 55.9 °F 51.1 °F 84% 30.14 in 10.0 mi East 6.9 mph - N/A   Clear
11:35 PM 55.0 °F 50.4 °F 84% 30.15 in 10.0 mi East 5.8 mph - N/A   Clear
11:36 PM 54.9 °F 50.5 °F 85% 30.15 in 10.0 mi East 6.9 mph - N/A   Clear
11:55 PM 54.3 °F 50.5 °F 87% 30.16 in 10.0 mi East 5.8 mph - N/A   Clear
11:56 PM 54.3 °F 50.7 °F 88% 30.16 in 10.0 mi East 5.8 mph - N/A   Clear